Time,TemperatureF,DewpointF,PressureIn,WindDirection,WindDirectionDegrees,WindSpeedMPH,WindSpeedGustMPH,Humidity,HourlyPrecipIn,Conditions,Clouds,dailyrainin,SoftwareType,DateUTC
2013-03-10 00:06:00,47.6,45.0,30.14,SW,227,0.0,-999.0,90,-99.99,,,0.00,weatherlink.com 1.10,2013-03-10 08:06:00,
2013-03-10 00:21:00,47.5,45.0,30.14,SW,227,0.0,-999.0,91,-99.99,,,0.00,weatherlink.com 1.10,2013-03-10 08:21:00,
2013-03-10 00:36:00,47.3,45.0,30.14,SW,227,0.0,-999.0,91,-99.99,,,0.00,weatherlink.com 1.10,2013-03-10 08:36:00,
2013-03-10 00:51:00,47.5,45.0,30.15,SW,227,0.0,-999.0,91,-99.99,,,0.00,weatherlink.com 1.10,2013-03-10 08:51:00,
2013-03-10 01:06:00,47.8,45.0,30.16,SW,227,0.0,-999.0,91,-99.99,,,0.00,weatherlink.com 1.10,2013-03-10 09:06:00,
2013-03-10 01:21:00,47.3,45.0,30.16,SW,227,0.0,-999.0,91,-99.99,,,0.00,weatherlink.com 1.10,2013-03-10 09:21:00,
2013-03-10 01:36:00,46.5,44.0,30.16,SW,227,0.0,-999.0,91,-99.99,,,0.00,weatherlink.com 1.10,2013-03-10 09:36:00,
2013-03-10 01:51:00,45.9,44.0,30.16,SW,227,0.0,-999.0,91,-99.99,,,0.00,weatherlink.com 1.10,2013-03-10 09:51:00,
2013-03-10 03:06:00,45.8,43.0,30.15,SW,227,0.0,-999.0,91,-99.99,,,0.00,weatherlink.com 1.10,2013-03-10 10:06:00,
2013-03-10 03:21:00,45.9,44.0,30.14,SW,227,0.0,-999.0,91,-99.99,,,0.00,weatherlink.com 1.10,2013-03-10 10:21:00,
2013-03-10 03:36:00,45.5,43.0,30.14,SW,227,0.0,-999.0,91,-99.99,,,0.00,weatherlink.com 1.10,2013-03-10 10:36:00,
2013-03-10 03:51:00,45.3,43.0,30.14,SW,227,0.0,-999.0,92,-99.99,,,0.00,weatherlink.com 1.10,2013-03-10 10:51:00,
2013-03-10 04:06:00,44.7,42.0,30.14,SW,227,0.0,-999.0,91,-99.99,,,0.00,weatherlink.com 1.10,2013-03-10 11:06:00,
2013-03-10 04:21:00,44.2,42.0,30.14,SW,227,0.0,-999.0,91,-99.99,,,0.00,weatherlink.com 1.10,2013-03-10 11:21:00,
2013-03-10 04:36:00,44.0,42.0,30.14,SW,227,0.0,-999.0,92,-99.99,,,0.00,weatherlink.com 1.10,2013-03-10 11:36:00,
2013-03-10 04:51:00,43.9,42.0,30.14,SW,227,0.0,-999.0,92,-99.99,,,0.00,weatherlink.com 1.10,2013-03-10 11:51:00,
2013-03-10 05:06:00,43.6,42.0,30.13,SW,227,0.0,-999.0,92,-99.99,,,0.00,weatherlink.com 1.10,2013-03-10 12:06:00,
2013-03-10 05:21:00,43.6,42.0,30.14,SW,227,0.0,-999.0,92,-99.99,,,0.00,weatherlink.com 1.10,2013-03-10 12:21:00,
2013-03-10 05:36:00,43.4,41.0,30.14,SW,227,0.0,-999.0,92,-99.99,,,0.00,weatherlink.com 1.10,2013-03-10 12:36:00,
2013-03-10 05:51:00,43.3,41.0,30.16,SW,227,0.0,-999.0,92,-99.99,,,0.00,weatherlink.com 1.10,2013-03-10 12:51:00,
2013-03-10 06:07:00,42.8,41.0,30.16,SW,227,0.0,-999.0,92,-99.99,,,0.00,weatherlink.com 1.10,2013-03-10 13:07:00,
2013-03-10 06:22:00,42.7,41.0,30.16,SW,227,0.0,-999.0,92,-99.99,,,0.00,weatherlink.com 1.10,2013-03-10 13:22:00,
2013-03-10 06:37:00,42.4,40.0,30.16,SW,227,0.0,-999.0,92,-99.99,,,0.00,weatherlink.com 1.10,2013-03-10 13:37:00,
2013-03-10 06:52:00,42.5,41.0,30.17,SW,227,0.0,-999.0,93,-99.99,,,0.00,weatherlink.com 1.10,2013-03-10 13:52:00,
2013-03-10 07:07:00,42.3,41.0,30.17,SW,227,0.0,-999.0,93,-99.99,,,0.00,weatherlink.com 1.10,2013-03-10 14:07:00,
2013-03-10 07:22:00,42.0,40.0,30.17,SW,227,0.0,-999.0,93,-99.99,,,0.00,weatherlink.com 1.10,2013-03-10 14:22:00,
2013-03-10 07:37:00,41.9,40.0,30.17,SW,227,0.0,-999.0,93,-99.99,,,0.00,weatherlink.com 1.10,2013-03-10 14:37:00,
2013-03-10 07:52:00,43.2,41.0,30.18,SW,227,2.0,-999.0,93,-99.99,,,0.00,weatherlink.com 1.10,2013-03-10 14:52:00,
2013-03-10 08:07:00,45.6,44.0,30.18,SW,227,2.0,-999.0,94,-99.99,,,0.00,weatherlink.com 1.10,2013-03-10 15:07:00,
2013-03-10 08:22:00,47.2,46.0,30.18,SW,227,0.0,-999.0,94,-99.99,,,0.00,weatherlink.com 1.10,2013-03-10 15:22:00,
2013-03-10 08:37:00,49.0,47.0,30.18,ENE,69,0.0,-999.0,92,-99.99,,,0.00,weatherlink.com 1.10,2013-03-10 15:37:00,
2013-03-10 08:52:00,51.3,48.0,30.19,ENE,69,0.0,-999.0,89,-99.99,,,0.00,weatherlink.com 1.10,2013-03-10 15:52:00,
2013-03-10 09:07:00,53.6,49.0,30.19,ENE,69,0.0,-999.0,83,-99.99,,,0.00,weatherlink.com 1.10,2013-03-10 16:07:00,
2013-03-10 09:22:00,55.8,48.0,30.19,ENE,69,0.0,-999.0,76,-99.99,,,0.00,weatherlink.com 1.10,2013-03-10 16:22:00,
2013-03-10 09:37:00,58.0,48.0,30.20,ENE,69,0.0,-999.0,69,-99.99,,,0.00,weatherlink.com 1.10,2013-03-10 16:37:00,
2013-03-10 09:52:00,59.8,48.0,30.19,ENE,69,0.0,-999.0,66,-99.99,,,0.00,weatherlink.com 1.10,2013-03-10 16:52:00,
2013-03-10 10:07:00,60.6,47.0,30.19,ENE,69,0.0,-999.0,62,-99.99,,,0.00,weatherlink.com 1.10,2013-03-10 17:07:00,
2013-03-10 10:22:00,62.1,48.0,30.19,NW,321,3.0,-999.0,60,-99.99,,,0.00,weatherlink.com 1.10,2013-03-10 17:22:00,
2013-03-10 10:37:00,63.9,48.0,30.18,NNW,348,1.0,-999.0,57,-99.99,,,0.00,weatherlink.com 1.10,2013-03-10 17:37:00,
2013-03-10 10:52:00,65.5,48.0,30.18,NW,326,1.0,-999.0,54,-99.99,,,0.00,weatherlink.com 1.10,2013-03-10 17:52:00,
2013-03-10 11:07:00,67.5,48.0,30.18,NNW,333,0.0,-999.0,50,-99.99,,,0.00,weatherlink.com 1.10,2013-03-10 18:07:00,
2013-03-10 11:22:00,67.6,48.0,30.17,WNW,282,3.0,-999.0,49,-99.99,,,0.00,weatherlink.com 1.10,2013-03-10 18:22:00,
2013-03-10 11:37:00,68.6,44.0,30.18,West,270,2.0,-999.0,42,-99.99,,,0.00,weatherlink.com 1.10,2013-03-10 18:37:00,
2013-03-10 11:53:00,70.1,44.0,30.17,WSW,242,5.0,-999.0,39,-99.99,,,0.00,weatherlink.com 1.10,2013-03-10 18:53:00,
2013-03-10 12:08:00,70.4,43.0,30.17,SW,225,0.0,-999.0,37,-99.99,,,0.00,weatherlink.com 1.10,2013-03-10 19:08:00,
2013-03-10 12:23:00,72.4,42.0,30.16,NW,317,3.0,-999.0,33,-99.99,,,0.00,weatherlink.com 1.10,2013-03-10 19:23:00,
2013-03-10 12:38:00,73.3,44.0,30.16,West,265,3.0,-999.0,35,-99.99,,,0.00,weatherlink.com 1.10,2013-03-10 19:38:00,
2013-03-10 12:53:00,72.8,45.0,30.16,NW,314,6.0,-999.0,37,-99.99,,,0.00,weatherlink.com 1.10,2013-03-10 19:53:00,
2013-03-10 13:08:00,73.0,45.0,30.14,North,355,4.0,-999.0,37,-99.99,,,0.00,weatherlink.com 1.10,2013-03-10 20:08:00,
2013-03-10 13:23:00,73.7,41.0,30.14,NW,313,6.0,-999.0,31,-99.99,,,0.00,weatherlink.com 1.10,2013-03-10 20:23:00,
2013-03-10 13:38:00,74.8,42.0,30.13,NW,313,4.0,-999.0,31,-99.99,,,0.00,weatherlink.com 1.10,2013-03-10 20:38:00,
2013-03-10 13:53:00,74.4,44.0,30.12,WNW,286,2.0,-999.0,34,-99.99,,,0.00,weatherlink.com 1.10,2013-03-10 20:53:00,
2013-03-10 14:08:00,74.2,43.0,30.11,SSW,209,3.0,-999.0,33,-99.99,,,0.00,weatherlink.com 1.10,2013-03-10 21:08:00,
2013-03-10 14:23:00,74.6,47.0,30.11,NW,324,3.0,-999.0,38,-99.99,,,0.00,weatherlink.com 1.10,2013-03-10 21:23:00,
2013-03-10 14:38:00,74.5,45.0,30.11,NW,318,2.0,-999.0,35,-99.99,,,0.00,weatherlink.com 1.10,2013-03-10 21:38:00,
2013-03-10 14:53:00,75.0,41.0,30.10,WNW,296,4.0,-999.0,29,-99.99,,,0.00,weatherlink.com 1.10,2013-03-10 21:53:00,
2013-03-10 15:08:00,74.6,42.0,30.10,NNW,329,2.0,-999.0,31,-99.99,,,0.00,weatherlink.com 1.10,2013-03-10 22:08:00,
2013-03-10 15:23:00,74.0,41.0,30.09,North,349,3.0,-999.0,31,-99.99,,,0.00,weatherlink.com 1.10,2013-03-10 22:23:00,
2013-03-10 15:38:00,72.8,40.0,30.09,NNW,327,2.0,-999.0,31,-99.99,,,0.00,weatherlink.com 1.10,2013-03-10 22:38:00,
2013-03-10 15:53:00,72.9,44.0,30.09,North,9,7.0,-999.0,35,-99.99,,,0.00,weatherlink.com 1.10,2013-03-10 22:53:00,
2013-03-10 16:08:00,72.0,42.0,30.09,North,360,5.0,-999.0,34,-99.99,,,0.00,weatherlink.com 1.10,2013-03-10 23:08:00,
2013-03-10 16:23:00,71.3,41.0,30.09,North,5,4.0,-999.0,33,-99.99,,,0.00,weatherlink.com 1.10,2013-03-10 23:23:00,
2013-03-10 16:38:00,71.4,39.0,30.09,WNW,292,3.0,-999.0,31,-99.99,,,0.00,weatherlink.com 1.10,2013-03-10 23:38:00,
2013-03-10 16:53:00,71.4,38.0,30.09,WNW,298,3.0,-999.0,30,-99.99,,,0.00,weatherlink.com 1.10,2013-03-10 23:53:00,
2013-03-10 17:08:00,70.1,38.0,30.08,NNW,333,1.0,-999.0,31,-99.99,,,0.00,weatherlink.com 1.10,2013-03-11 00:08:00,
2013-03-10 17:23:00,69.4,37.0,30.08,NW,305,2.0,-999.0,31,-99.99,,,0.00,weatherlink.com 1.10,2013-03-11 00:23:00,
2013-03-10 17:38:00,69.0,37.0,30.08,NW,316,3.0,-999.0,31,-99.99,,,0.00,weatherlink.com 1.10,2013-03-11 00:38:00,
2013-03-10 17:53:00,68.5,38.0,30.08,NW,308,4.0,-999.0,33,-99.99,,,0.00,weatherlink.com 1.10,2013-03-11 00:53:00,
2013-03-10 18:08:00,67.4,39.0,30.08,NW,314,2.0,-999.0,36,-99.99,,,0.00,weatherlink.com 1.10,2013-03-11 01:08:00,
2013-03-10 18:23:00,66.4,41.0,30.08,NNW,329,3.0,-999.0,40,-99.99,,,0.00,weatherlink.com 1.10,2013-03-11 01:23:00,
2013-03-10 18:38:00,65.4,43.0,30.08,NW,304,1.0,-999.0,44,-99.99,,,0.00,weatherlink.com 1.10,2013-03-11 01:38:00,
2013-03-10 18:53:00,64.4,43.0,30.09,NNW,348,0.0,-999.0,46,-99.99,,,0.00,weatherlink.com 1.10,2013-03-11 01:53:00,
2013-03-10 19:08:00,63.0,44.0,30.08,NNW,348,1.0,-999.0,51,-99.99,,,0.00,weatherlink.com 1.10,2013-03-11 02:08:00,
2013-03-10 19:23:00,62.0,44.0,30.09,NNW,348,0.0,-999.0,53,-99.99,,,0.00,weatherlink.com 1.10,2013-03-11 02:23:00,
2013-03-10 19:38:00,61.2,45.0,30.09,NNW,348,0.0,-999.0,56,-99.99,,,0.00,weatherlink.com 1.10,2013-03-11 02:38:00,
2013-03-10 19:53:00,60.3,45.0,30.09,NNW,348,0.0,-999.0,58,-99.99,,,0.00,weatherlink.com 1.10,2013-03-11 02:53:00,
2013-03-10 20:08:00,59.3,46.0,30.08,NNW,348,0.0,-999.0,62,-99.99,,,0.00,weatherlink.com 1.10,2013-03-11 03:08:00,
2013-03-10 20:23:00,58.5,46.0,30.09,NNW,348,0.0,-999.0,64,-99.99,,,0.00,weatherlink.com 1.10,2013-03-11 03:23:00,
2013-03-10 20:38:00,57.5,46.0,30.09,NNW,348,0.0,-999.0,66,-99.99,,,0.00,weatherlink.com 1.10,2013-03-11 03:38:00,
2013-03-10 20:53:00,56.4,46.0,30.09,NNW,348,0.0,-999.0,68,-99.99,,,0.00,weatherlink.com 1.10,2013-03-11 03:53:00,
2013-03-10 21:08:00,55.7,47.0,30.09,NNW,348,0.0,-999.0,72,-99.99,,,0.00,weatherlink.com 1.10,2013-03-11 04:08:00,
2013-03-10 21:23:00,55.3,47.0,30.10,NNW,348,0.0,-999.0,74,-99.99,,,0.00,weatherlink.com 1.10,2013-03-11 04:23:00,
2013-03-10 21:38:00,54.8,47.0,30.10,NNW,348,0.0,-999.0,76,-99.99,,,0.00,weatherlink.com 1.10,2013-03-11 04:38:00,
2013-03-10 21:53:00,54.1,47.0,30.11,NNW,348,0.0,-999.0,77,-99.99,,,0.00,weatherlink.com 1.10,2013-03-11 04:53:00,
2013-03-10 22:08:00,53.2,47.0,30.11,NNW,348,0.0,-999.0,78,-99.99,,,0.00,weatherlink.com 1.10,2013-03-11 05:08:00,
2013-03-10 22:23:00,52.5,47.0,30.11,NNW,348,0.0,-999.0,80,-99.99,,,0.00,weatherlink.com 1.10,2013-03-11 05:23:00,
2013-03-10 22:38:00,52.4,47.0,30.11,NNW,348,0.0,-999.0,82,-99.99,,,0.00,weatherlink.com 1.10,2013-03-11 05:38:00,
2013-03-10 22:53:00,52.0,47.0,30.11,NNW,348,0.0,-999.0,83,-99.99,,,0.00,weatherlink.com 1.10,2013-03-11 05:53:00,
2013-03-10 23:09:00,51.6,47.0,30.11,NNW,348,0.0,-999.0,84,-99.99,,,0.00,weatherlink.com 1.10,2013-03-11 06:09:00,
2013-03-10 23:24:00,51.0,47.0,30.11,NNW,348,0.0,-999.0,85,-99.99,,,0.00,weatherlink.com 1.10,2013-03-11 06:24:00,
2013-03-10 23:39:00,50.7,47.0,30.10,NNW,348,0.0,-999.0,86,-99.99,,,0.00,weatherlink.com 1.10,2013-03-11 06:39:00,
2013-03-10 23:54:00,50.1,46.0,30.10,NNW,348,0.0,-999.0,86,-99.99,,,0.00,weatherlink.com 1.10,2013-03-11 06:54:00,